Cedar Rapids, IA

10:26 PM CDT on July 24, 2017 (GMT -0500)
The Eastern Iowa Airport

Weather History for KCID - January, 2003

Change the Weather History Date:

Thursday, January 2, 2003

  Actual Average Record
Temperature  
Mean Temperature 28 °F 20 °F  
Max Temperature 30 °F 28 °F 56 °F (1897)
Min Temperature 23 °F 11 °F -19 °F (1979)
Degree Days  
Heating Degree Days 38 45  
Month to date heating degree days 90  
Since 1 July heating degree days 2829  
Cooling Degree Days 0 0  
Month to date cooling degree days 0  
Year to date cooling degree days 0  
Moisture  
Dew Point 18 °F    
Average Humidity 69    
Maximum Humidity 75    
Minimum Humidity 61    
Precipitation  
Precipitation 0.00 in 0.04 in 0.58 in (2006)
Month to date precipitation 0.07  
Year to date precipitation 0.07  
Sea Level Pressure  
Sea Level Pressure 30.11 in    
Wind  
Wind Speed 12 mph (North)    
Max Wind Speed 17 mph    
Max Gust Speed -    
Visibility 10 miles    
Events      
T = Trace of Precipitation, MM = Missing Value Source: NWS Daily Summary

Daily Weather History Graph

Daily Weather History Graph

Search for Another Location

Airport or City:

Trip Planner

Search our weather history database for the weather conditions in past years. The results will help you decide how hot, cold, wet, or windy it might be!

Date:

Astronomy

Jan. 02, 2003 Rise Set
Actual Time 7:34 AM CST 4:47 PM CST
Civil Twilight 7:03 AM CST 5:18 PM CST
Nautical Twilight 6:28 AM CST 5:53 PM CST
Astronomical Twilight 5:54 AM CST 6:27 PM CST
Moon 7:39 AM CST (1/2) 4:33 PM CST (1/2)
Length of Visible Light 10h 15m
Length of Day
9h 12m
Waning Crescent, 0% of the Moon is Illuminated
Jan 2
Waning Crescent
Jan 2
New
Jan 10
First Quarter
Jan 18
Full
Jan 25
Last Quarter

Hourly Weather History & Observations

Time (CST) Temp. Windchill Dew Point Humidity Pressure Visibility Wind Dir Wind Speed Gust Speed Precip Events Conditions
12:52 AM 26.1 °F 14.5 °F 15.1 °F 63% 30.12 in 10.0 mi NE 13.8 mph - N/A   Overcast
1:52 AM 26.1 °F 15.6 °F 16.0 °F 66% 30.12 in 10.0 mi NE 11.5 mph - N/A   Overcast
2:52 AM 25.0 °F 15.5 °F 18.0 °F 75% 30.12 in 10.0 mi NNE 9.2 mph - N/A   Overcast
3:52 AM 25.0 °F 14.2 °F 18.0 °F 75% 30.11 in 10.0 mi NNE 11.5 mph - N/A   Overcast
4:52 AM 25.0 °F 13.6 °F 18.0 °F 75% 30.11 in 10.0 mi North 12.7 mph - N/A   Overcast
5:52 AM 25.0 °F 13.1 °F 18.0 °F 75% 30.10 in 10.0 mi NNE 13.8 mph - N/A   Overcast
6:52 AM 26.1 °F 14.5 °F 19.0 °F 75% 30.10 in 10.0 mi NNE 13.8 mph - N/A   Overcast
7:52 AM 26.1 °F 13.6 °F 19.0 °F 75% 30.11 in 10.0 mi North 16.1 mph - N/A   Overcast
8:52 AM 26.1 °F 13.1 °F 19.0 °F 75% 30.12 in 10.0 mi North 17.3 mph - N/A   Overcast
9:52 AM 27.0 °F 16.1 °F 19.9 °F 75% 30.13 in 9.0 mi NNE 12.7 mph - N/A   Overcast
10:52 AM 27.0 °F 16.7 °F 19.0 °F 72% 30.14 in 9.0 mi NNE 11.5 mph - N/A   Overcast
11:52 AM 27.0 °F 16.1 °F 19.0 °F 72% 30.12 in 8.0 mi NNE 12.7 mph - N/A   Overcast
12:43 PM 28.4 °F 18.0 °F 19.4 °F 69% 30.06 in 10.0 mi North 12.7 mph - N/A   Scattered Clouds
12:52 PM 28.9 °F 18.2 °F 18.0 °F 64% 30.09 in 10.0 mi North 13.8 mph - N/A   Mostly Cloudy
1:52 PM 30.0 °F 20.5 °F 18.0 °F 61% 30.07 in 10.0 mi North 11.5 mph - N/A   Overcast
2:52 PM 30.0 °F 20.0 °F 18.0 °F 61% 30.08 in 10.0 mi North 12.7 mph - N/A   Mostly Cloudy
3:52 PM 30.0 °F 21.1 °F 18.0 °F 61% 30.09 in 10.0 mi North 10.4 mph - N/A   Overcast
4:52 PM 28.9 °F 19.8 °F 18.0 °F 64% 30.11 in 10.0 mi North 10.4 mph - N/A   Overcast
5:13 PM 28.4 °F 19.7 °F 17.6 °F 64% 30.07 in 10.0 mi North 9.2 mph - N/A   Overcast
5:52 PM 27.0 °F 20.5 °F 18.0 °F 69% 30.12 in 10.0 mi North 5.8 mph - N/A   Mostly Cloudy
6:52 PM 28.0 °F 20.0 °F 19.0 °F 69% 30.12 in 10.0 mi North 8.1 mph - N/A   Overcast
7:52 PM 28.0 °F 20.8 °F 18.0 °F 66% 30.13 in 10.0 mi North 6.9 mph - N/A   Overcast
8:52 PM 28.0 °F 18.6 °F 18.0 °F 66% 30.12 in 10.0 mi North 10.4 mph - N/A   Overcast
9:52 PM 27.0 °F 19.5 °F 18.0 °F 69% 30.13 in 10.0 mi North 6.9 mph - N/A   Overcast
10:52 PM 27.0 °F 19.5 °F 17.1 °F 66% 30.14 in 10.0 mi North 6.9 mph - N/A   Overcast
11:52 PM 23.0 °F 14.7 °F 16.0 °F 74% 30.14 in 10.0 mi NW 6.9 mph - N/A   Overcast